[[{"header":{"parameterUnit":"m.s-1","parameterCategory":1,"la1":30.2992,"la2":30.254,"lo1":-89.0895,"lo2":-89.0443,"dy":0.0025,"dx":0.0025,"nx":19,"ny":19,"refTime":"2026-03-06T03:00:00:Z","depth":0,"parameterNumber":2,"parameterNumberName":"U-component_of_WINDS"},"data":[0,0,0,-3.4563,-3.4566,-3.474,-3.4741,-3.4956,-3.4958,0,0,0,0,0,0,0,0,0,0,0,-3.4506,-3.4507,-3.4562,-3.4567,-3.474,-3.4741,-3.4956,-3.4958,0,0,0,0,0,0,0,0,0,0,0,-3.4505,-3.4507,-3.4508,-3.4567,-3.474,-3.4741,-3.4956,-3.4827,0,0,0,0,0,0,0,0,0,0,-3.4659,-3.4601,-3.4506,-3.4508,-3.4568,-3.474,-3.4741,-3.4821,-3.4835,-3.4874,0,-3.4907,0,-3.4936,-3.4972,-3.4973,0,0,0,-3.4571,-3.4589,-3.4641,-3.4508,-3.457,-3.474,-3.4663,-3.4829,-3.4845,-3.4893,-3.491,-3.4918,-3.494,-3.4973,-3.4975,-3.5185,-3.5186,0,0,-3.4561,-3.4534,-3.463,-3.4651,-3.4623,-3.4657,-3.4668,-3.4839,-3.4856,-3.4911,-3.4923,-3.4943,-3.4975,-3.4976,-3.5185,-3.5185,0,0,0,-3.4531,-3.4527,-3.4575,-3.4642,-3.4674,-3.4662,-3.4675,-3.4848,-3.4866,-3.4926,-3.4946,-3.4976,-3.4979,-3.5184,-3.5185,-3.5196,0,0,0,-3.4525,-3.4509,-3.4571,-3.4556,-3.4671,-3.4763,-3.468,-3.4854,-3.4874,-3.4944,-3.4976,-3.4981,-3.5183,-3.5184,-3.5194,-3.5205,0,0,0,-3.4496,-3.4506,-3.4529,-3.4554,-3.4628,-3.4761,-3.4789,-3.4859,-3.4886,-3.4973,-3.4981,-3.5182,-3.5184,-3.5192,-3.5202,-3.5252,0,0,0,-3.4457,-3.4537,-3.4529,-3.4627,-3.4626,-3.4768,-3.4788,-3.4895,-3.4971,-3.4977,-3.5183,-3.5185,-3.5192,-3.52,-3.525,-3.5287,-3.53,0,0,-3.4543,-3.4547,-3.4606,-3.4604,-3.4739,-3.4743,-3.4881,-3.4976,-3.501,-3.5125,-3.5131,-3.5195,-3.5202,-3.5251,-3.539,-3.5401,0,0,0,-3.4624,-3.4666,-3.4708,-3.4779,-3.4855,-3.492,-3.4997,-3.5033,-3.5132,-3.5063,-3.5229,-3.5234,-3.5264,-3.5282,-3.5291,-3.5318,-3.5193,-3.5193,-3.5193,-3.4704,-3.4744,-3.4845,-3.4905,-3.4975,-3.5055,-3.5114,-3.5176,-3.5195,-3.5234,-3.5267,-3.5347,-3.5368,-3.5375,-3.5403,-3.5293,-3.5293,-3.5293,-3.5293,-3.4831,-3.4896,-3.4923,-3.5029,-3.5071,-3.5162,-3.5244,-3.5255,-3.5345,-3.5325,-3.5353,-3.5324,-3.5385,-3.5411,-3.5294,-3.5294,-3.5294,-3.5294,-3.5294,-3.4886,-3.4924,-3.4967,-3.5075,-3.5154,-3.5214,-3.5301,-3.5336,-3.5371,-3.5399,-3.5438,-3.5438,-3.544,-3.5416,-3.5416,-3.5416,-3.5417,-3.5417,-3.5417,-3.4923,-3.4972,-3.504,-3.5128,-3.5179,-3.5251,-3.5336,-3.5387,-3.5454,-3.5473,-3.5473,-3.5488,-3.5385,-3.5356,-3.5421,-3.5421,-3.542,-3.542,-3.5419,-3.5032,-3.5014,-3.5118,-3.517,-3.5278,-3.5354,-3.54,-3.5503,-3.5552,-3.5593,-3.5604,-3.5523,-3.5528,-3.5522,-3.5498,-3.5596,-3.5596,-3.5596,-3.5596,-3.5075,-3.5083,-3.5199,-3.5279,-3.5362,-3.5415,-3.5533,-3.56,-3.5667,-3.57,-3.5692,-3.5665,-3.5657,-3.5668,-3.5658,-3.5636,-3.5767,-3.5767,-3.5767,-3.5144,-3.5162,-3.5254,-3.5319,-3.5407,-3.5482,-3.5594,-3.5686,-3.5759,-3.5775,-3.5726,-3.5719,-3.5676,-3.5661,-3.5671,-3.5655,-3.5616,0,0]},{"header":{"parameterUnit":"m.s-1","parameterCategory":1,"la1":30.2992,"la2":30.254,"lo1":-89.0895,"lo2":-89.0443,"dy":0.0025,"dx":0.0025,"nx":19,"ny":19,"refTime":"2026-03-06T03:00:00:Z","depth":0,"parameterNumber":3,"parameterNumberName":"V-component_of_WINDS"},"data":[0,0,0,2.0109,2.011,2.0154,2.0155,2.0178,2.0178,0,0,0,0,0,0,0,0,0,0,0,2.0077,2.0076,2.0109,2.011,2.0154,2.0155,2.0178,2.0178,0,0,0,0,0,0,0,0,0,0,0,2.0077,2.0076,2.0076,2.011,2.0154,2.0155,2.0178,2.0156,0,0,0,0,0,0,0,0,0,0,2.0118,2.007,2.0076,2.0076,2.011,2.0154,2.0155,2.0156,2.0158,2.0144,0,2.0129,0,2.0154,2.0178,2.0178,0,0,0,2.0123,2.0068,2.0098,2.0076,2.011,2.0154,2.0138,2.0157,2.0159,2.0147,2.0129,2.0131,2.0154,2.0178,2.0178,2.0065,2.0064,0,0,2.0121,2.0073,2.0096,2.0098,2.0091,2.0136,2.0139,2.0159,2.0136,2.0129,2.0132,2.0155,2.0178,2.0178,2.0066,2.0064,0,0,0,2.0104,2.0071,2.0102,2.0097,2.0107,2.0137,2.0141,2.0135,2.0149,2.0133,2.0155,2.0178,2.0178,2.0067,2.0065,1.9966,0,0,0,2.0104,2.0062,2.01,2.0071,2.0106,2.0122,2.0115,2.0148,2.0152,2.0155,2.0178,2.0178,2.0068,2.0066,1.9972,1.9926,0,0,0,2.008,2.0059,2.006,2.0068,2.0087,2.0123,2.0138,2.015,2.0164,2.0178,2.0178,2.0069,2.0067,1.9977,1.9935,1.9886,0,0,0,2.0041,1.9966,2.0057,1.9983,2.0086,2.0061,2.0139,2.0122,2.0121,2.0178,2.0068,2.0065,1.9978,1.994,1.9891,1.9839,1.9812,0,0,1.992,1.9949,1.991,1.9993,1.9941,2.0058,1.9992,2.0033,2.0075,2.0065,2.0063,1.997,1.9935,1.9887,1.9675,1.9653,0,0,0,1.9856,1.9827,1.9824,1.9824,1.9857,1.9882,1.994,1.9957,1.9953,2.0061,1.994,1.992,1.9894,1.9871,1.9853,1.9835,2.0052,2.0053,2.0053,1.9616,1.968,1.962,1.9689,1.9687,1.9752,1.9757,1.979,1.9848,1.9819,1.9817,1.9681,1.9652,1.9639,1.9619,1.9793,1.9792,1.9792,1.9792,1.9448,1.9419,1.9506,1.9479,1.9546,1.9523,1.9583,1.9627,1.9616,1.9686,1.9666,1.9739,1.9613,1.96,1.9785,1.9786,1.9787,1.9788,1.9788,1.93,1.9298,1.9322,1.9333,1.9334,1.9406,1.9394,1.9454,1.9509,1.9489,1.9496,1.9498,1.951,1.9488,1.9488,1.9487,1.9487,1.9487,1.9486,1.9138,1.9169,1.9153,1.9187,1.9198,1.9219,1.9286,1.9298,1.9327,1.9371,1.9372,1.9436,1.9589,1.9628,1.9479,1.9481,1.9482,1.9482,1.9483,1.8947,1.9002,1.8976,1.8988,1.9035,1.9035,1.9113,1.9133,1.9151,1.9144,1.9214,1.9317,1.935,1.9365,1.9398,1.9199,1.9199,1.9199,1.9199,1.8825,1.8849,1.884,1.8855,1.8877,1.8947,1.8918,1.8971,1.9033,1.9049,1.9086,1.9134,1.9146,1.9173,1.9192,1.9223,1.8984,1.8984,1.8984,1.8713,1.8743,1.8707,1.8772,1.8815,1.8851,1.8827,1.8841,1.8922,1.8977,1.9063,1.9072,1.915,1.9172,1.9228,1.9256,1.9315,0,0]}]]